When you browse on this site, cookies collect data to enhance your experience and personalize the content and advertising you see.
Visit our Privacy Policy to learn more. By continuing to use the site, you agree to this use of cookies and data.
  • In Hungary
  • List of Countries
  • For 7 days
  • Water Temperature
  • Weather Map
  • News
  • Weather Widgets
  • user-avatar
    Login

    Hourly Weather Gremyachka

    Today, 23 January, Thursday

    Time Temperature Precipitation Wind Pressure Humidity
    00:00 -5°C° 0 mm 2 mps 733 mmHg 95%
    01:00 -6°C° 0 mm 2 mps 733 mmHg 95%
    02:00 -7°C° 0 mm 2 mps 733 mmHg 95%
    03:00 -7°C° 0 mm 2 mps 733 mmHg 95%
    04:00 -7°C° 0 mm 2 mps 733 mmHg 95%
    05:00 -7°C° 0 mm 2 mps 733 mmHg 95%
    06:00 -6°C° 0 mm 2 mps 733 mmHg 95%
    07:00 -7°C° 0.3 mm 3 mps 733 mmHg 95%
    08:00 -6°C° 0.3 mm 3 mps 734 mmHg 95%
    09:00 -7°C° 0.3 mm 4 mps 734 mmHg 95%
    10:00 -7°C° 0.1 mm 5 mps 734 mmHg 93%
    11:00 -6°C° 0.1 mm 6 mps 735 mmHg 90%
    12:00 -7°C° 0.1 mm 7 mps 735 mmHg 87%
    13:00 -6°C° 0 mm 6 mps 736 mmHg 88%
    14:00 -6°C° 0 mm 6 mps 736 mmHg 88%
    15:00 -6°C° 0 mm 6 mps 737 mmHg 88%
    16:00 -8°C° 0 mm 6 mps 737 mmHg 89%
    17:00 -8°C° 0 mm 5 mps 738 mmHg 90%
    18:00 -11°C° 0 mm 5 mps 738 mmHg 92%
    19:00 -10°C° 0 mm 4 mps 739 mmHg 92%
    20:00 -11°C° 0 mm 4 mps 740 mmHg 93%
    21:00 -10°C° 0 mm 3 mps 741 mmHg 94%
    22:00 -12°C° 0 mm 3 mps 741 mmHg 94%
    23:00 -12°C° 0 mm 3 mps 742 mmHg 94%

    Tomorrow, 24 January, Friday

    Time Temperature Precipitation Wind Pressure Humidity
    00:00 -13°C° 0 mm 3 mps 742 mmHg 94%
    01:00 -13°C° 0 mm 3 mps 743 mmHg 94%
    02:00 -13°C° 0 mm 3 mps 744 mmHg 94%
    03:00 -13°C° 0 mm 3 mps 744 mmHg 94%
    04:00 -14°C° 0 mm 3 mps 745 mmHg 94%
    05:00 -15°C° 0 mm 3 mps 745 mmHg 95%
    06:00 -16°C° 0 mm 3 mps 745 mmHg 95%
    07:00 -16°C° 0 mm 3 mps 746 mmHg 95%
    08:00 -16°C° 0 mm 3 mps 747 mmHg 95%
    09:00 -16°C° 0 mm 3 mps 748 mmHg 95%
    10:00 -15°C° 0 mm 3 mps 748 mmHg 94%
    11:00 -15°C° 0 mm 4 mps 748 mmHg 93%
    12:00 -14°C° 0 mm 4 mps 748 mmHg 92%
    13:00 -14°C° 0 mm 4 mps 748 mmHg 92%
    14:00 -14°C° 0 mm 4 mps 748 mmHg 92%
    15:00 -14°C° 0 mm 4 mps 748 mmHg 91%
    16:00 -14°C° 0 mm 4 mps 748 mmHg 90%
    17:00 -14°C° 0 mm 5 mps 747 mmHg 89%
    18:00 -14°C° 0 mm 5 mps 747 mmHg 88%
    19:00 -15°C° 0 mm 6 mps 747 mmHg 89%
    20:00 -14°C° 0 mm 6 mps 746 mmHg 90%
    21:00 -12°C° 0 mm 6 mps 746 mmHg 90%
    22:00 -12°C° 0.2 mm 7 mps 745 mmHg 91%
    23:00 -11°C° 0.2 mm 7 mps 744 mmHg 92%

    Day after tomorrow, 25 January, Saturday

    Time Temperature Precipitation Wind Pressure Humidity
    00:00 -10°C° 0.2 mm 8 mps 743 mmHg 92%
    01:00 -10°C° 0.3 mm 8 mps 742 mmHg 93%
    02:00 -8°C° 0.3 mm 8 mps 741 mmHg 93%
    03:00 -7°C° 0.3 mm 8 mps 740 mmHg 94%
    04:00 -6°C° 0.2 mm 8 mps 740 mmHg 94%
    05:00 -6°C° 0.2 mm 8 mps 739 mmHg 94%
    06:00 -5°C° 0.2 mm 8 mps 738 mmHg 94%
    07:00 -3°C° 0.3 mm 7 mps 739 mmHg 95%
    08:00 -2°C° 0.3 mm 6 mps 739 mmHg 97%
    09:00 0°C° 0.3 mm 5 mps 739 mmHg 98%
    10:00 -2°C° 0.1 mm 6 mps 739 mmHg 98%
    11:00 -2°C° 0.1 mm 6 mps 739 mmHg 98%
    12:00 -2°C° 0.1 mm 6 mps 739 mmHg 98%
    13:00 -2°C° 0 mm 6 mps 738 mmHg 98%
    14:00 -2°C° 0 mm 6 mps 738 mmHg 98%
    15:00 -2°C° 0 mm 6 mps 738 mmHg 98%
    16:00 -2°C° 0.1 mm 6 mps 738 mmHg 98%
    17:00 -2°C° 0.1 mm 7 mps 737 mmHg 97%
    18:00 -2°C° 0.1 mm 7 mps 737 mmHg 97%
    19:00 -2°C° 0.2 mm 7 mps 737 mmHg 97%
    20:00 -2°C° 0.2 mm 8 mps 736 mmHg 96%
    21:00 -3°C° 0.2 mm 9 mps 736 mmHg 96%
    22:00 -4°C° 0.3 mm 8 mps 736 mmHg 92%
    23:00 -4°C° 0.3 mm 8 mps 735 mmHg 89%

    26 January, Sunday

    Time Temperature Precipitation Wind Pressure Humidity
    00:00 -5°C° 0.3 mm 8 mps 735 mmHg 85%
    01:00 -5°C° 0.1 mm 8 mps 736 mmHg 87%
    02:00 -5°C° 0.1 mm 8 mps 736 mmHg 89%
    03:00 -5°C° 0.1 mm 8 mps 736 mmHg 92%
    04:00 -6°C° 0 mm 8 mps 737 mmHg 91%
    05:00 -7°C° 0 mm 8 mps 737 mmHg 90%
    06:00 -7°C° 0 mm 8 mps 737 mmHg 89%
    07:00 -8°C° 0 mm 8 mps 738 mmHg 89%
    08:00 -8°C° 0 mm 8 mps 739 mmHg 89%
    09:00 -8°C° 0 mm 8 mps 740 mmHg 88%
    10:00 -8°C° 0 mm 9 mps 741 mmHg 88%
    11:00 -8°C° 0 mm 9 mps 742 mmHg 88%
    12:00 -8°C° 0 mm 9 mps 742 mmHg 87%
    13:00 -7°C° 0 mm 8 mps 743 mmHg 87%
    14:00 -7°C° 0 mm 8 mps 744 mmHg 87%
    15:00 -7°C° 0 mm 7 mps 744 mmHg 87%
    16:00 -7°C° 0 mm 7 mps 745 mmHg 87%
    17:00 -8°C° 0 mm 7 mps 746 mmHg 88%
    18:00 -8°C° 0 mm 7 mps 747 mmHg 89%
    19:00 -8°C° 0 mm 7 mps 747 mmHg 89%
    20:00 -9°C° 0 mm 7 mps 748 mmHg 89%
    21:00 -9°C° 0 mm 6 mps 749 mmHg 89%
    22:00 -9°C° 0 mm 6 mps 749 mmHg 90%
    23:00 -10°C° 0 mm 6 mps 750 mmHg 91%

    27 January, Monday

    Time Temperature Precipitation Wind Pressure Humidity
    00:00 -10°C° 0 mm 6 mps 750 mmHg 92%
    01:00 -11°C° 0 mm 6 mps 751 mmHg 92%
    02:00 -11°C° 0 mm 5 mps 752 mmHg 93%
    03:00 -12°C° 0 mm 5 mps 752 mmHg 93%
    04:00 -12°C° 0 mm 5 mps 753 mmHg 93%
    05:00 -11°C° 0 mm 4 mps 753 mmHg 93%
    06:00 -11°C° 0 mm 4 mps 754 mmHg 94%
    07:00 -12°C° 0 mm 4 mps 755 mmHg 94%
    08:00 -12°C° 0 mm 3 mps 755 mmHg 94%
    09:00 -13°C° 0 mm 3 mps 756 mmHg 94%
    10:00 -10°C° 0 mm 2 mps 757 mmHg 93%
    11:00 -10°C° 0 mm 2 mps 757 mmHg 92%
    12:00 -9°C° 0 mm 2 mps 757 mmHg 90%
    13:00 -9°C° 0 mm 2 mps 757 mmHg 91%
    14:00 -8°C° 0 mm 2 mps 757 mmHg 91%
    15:00 -8°C° 0 mm 2 mps 757 mmHg 92%
    16:00 -8°C° 0 mm 2 mps 757 mmHg 92%
    17:00 -9°C° 0 mm 3 mps 756 mmHg 93%
    18:00 -8°C° 0 mm 3 mps 756 mmHg 94%
    19:00 -9°C° 0 mm 4 mps 756 mmHg 92%
    20:00 -8°C° 0 mm 4 mps 755 mmHg 91%
    21:00 -8°C° 0 mm 5 mps 755 mmHg 90%
    22:00 -8°C° 0 mm 5 mps 754 mmHg 89%
    23:00 -7°C° 0 mm 5 mps 754 mmHg 89%

    28 January, Tuesday

    Time Temperature Precipitation Wind Pressure Humidity
    00:00 -7°C° 0 mm 5 mps 753 mmHg 88%
    01:00 -8°C° 0 mm 6 mps 753 mmHg 87%
    02:00 -8°C° 0 mm 6 mps 752 mmHg 86%
    03:00 -8°C° 0 mm 6 mps 752 mmHg 86%
    04:00 -8°C° 0 mm 6 mps 752 mmHg 86%
    05:00 -8°C° 0 mm 6 mps 751 mmHg 86%
    06:00 -8°C° 0 mm 6 mps 751 mmHg 87%
    07:00 -8°C° 0 mm 6 mps 750 mmHg 88%
    08:00 -6°C° 0 mm 6 mps 750 mmHg 89%
    09:00 -6°C° 0 mm 6 mps 749 mmHg 91%
    10:00 -6°C° 0.2 mm 6 mps 749 mmHg 92%
    11:00 -5°C° 0.2 mm 6 mps 749 mmHg 92%
    12:00 -5°C° 0.2 mm 6 mps 748 mmHg 93%
    13:00 -4°C° 0.1 mm 6 mps 748 mmHg 93%
    14:00 -4°C° 0.1 mm 6 mps 747 mmHg 94%
    15:00 -4°C° 0.1 mm 5 mps 747 mmHg 94%
    16:00 -4°C° 0.2 mm 5 mps 747 mmHg 95%
    17:00 -3°C° 0.2 mm 4 mps 747 mmHg 96%
    18:00 -3°C° 0.2 mm 4 mps 747 mmHg 97%
    19:00 -2°C° 0.4 mm 4 mps 747 mmHg 97%
    20:00 -2°C° 0.4 mm 4 mps 747 mmHg 97%
    21:00 -1°C° 0.4 mm 4 mps 747 mmHg 98%
    22:00 -1°C° 0.1 mm 4 mps 747 mmHg 97%
    23:00 -1°C° 0.1 mm 4 mps 748 mmHg 97%
    Show more